sat.trackr.live / text

‹ back to catalog

IRIDIUM 156

NORAD 43576 · 2018-061H

PAYLOAD ACTIVE UNKNOWN

§ Identity

Operator
Country
US
Launch date
2018-07-25
Launch site
AFWTR
Launch vehicle
Mass (kg)
RCS (m²)

Purposes: comms

External: N2YO · Heavens-Above · Gunter

§ Orbital elements

Epoch: 2026-05-25T00:34:38.457408Z

Period
100.40 min
Inclination
86.3967°
Eccentricity
0.0002281
Mean motion
14.34217839 rev/d
Perigee alt
776.0 km
Apogee alt
779.3 km
Semi-major
7,155.8 km
B*
1.8564e-6
RAAN
66.4127°
Arg perigee
79.9059°
Mean anomaly
280.2394°
Rev number
41,005

§ Raw data

IRIDIUM 1561 43576U 18061H   26145.02405622  .00000025  00000+0  18564-5 0  99952 43576  86.3967  66.4127 0002281  79.9059 280.2394 14.34217839410054

JSON: /api/v1/satellites/43576 · /tle

For live sub-satellite position, see the globe view (requires WebGL).

§ Visibility from observer

Set your observer location to see the next 7 days of passes ≥ 10°. The values pass through the URL so the page stays shareable.

No JS? Fill the form by hand. The geolocation button needs JavaScript.